2024-159F

Last updated on Tue Sep 17 2024 00:02:05 GMT+0000 (Coordinated Universal Time)

1 61016U 24159F 24260.80376631 .00025007 00000+0 19961-2 0 9994 2 61016 50.0267 187.9645 0037538 154.6313 240.6020 14.99540220 1624
UTC large
Height (km)
Speed (km/s)
/
Latitude / Longitude
Inclination (degrees)
Orbital Period (minutes)
Azimuth
Elevation
Range (km)
Doppler Factor

Next 0 passes for location: London (51.5072 / 0.1276)

Sorry there are no passes over London.